GMAXS EGBJ-EGHP

Flight info

Callsign GMAXS
Flight time 0h 34m
Altitude 2000
Route GLOUCESTERSHIRE EGBJ /WP1 NAXAT /WP2 SITNU /WP3 GAVGO /WP4 BEDEK /POPHAM EGHP
Aircraft PA38/L-VGDW/C

Departure

Time 2026-05-06 12:15
Airport Gloucestershire Airport (EGBJ)

Arrival

Time 2026-05-06 12:50
Airport Popham Airfield (EGHP)
Time Latitude Longitude Altitude Speed Heading
2026-05-06 11:58 51.89182 -2.15839 100 ft 0 kts 78°
2026-05-06 12:09 51.89191 -2.15819 100 ft 5 kts 32°
2026-05-06 12:09 51.89233 -2.15824 99 ft 6 kts 349°
2026-05-06 12:09 51.89293 -2.15842 97 ft 10 kts 353°
2026-05-06 12:10 51.89357 -2.15871 96 ft 8 kts 312°
2026-05-06 12:10 51.89370 -2.15956 94 ft 7 kts 258°
2026-05-06 12:10 51.89340 -2.16020 93 ft 7 kts 217°
2026-05-06 12:10 51.89294 -2.16073 93 ft 11 kts 215°
2026-05-06 12:11 51.89228 -2.16149 93 ft 10 kts 216°
2026-05-06 12:11 51.89170 -2.16216 93 ft 10 kts 213°
2026-05-06 12:11 51.89114 -2.16278 93 ft 10 kts 215°
2026-05-06 12:11 51.89052 -2.16355 92 ft 10 kts 230°
2026-05-06 12:12 51.89028 -2.16451 91 ft 8 kts 251°
2026-05-06 12:12 51.88993 -2.16505 90 ft 8 kts 180°
2026-05-06 12:12 51.88931 -2.16500 90 ft 9 kts 189°
2026-05-06 12:12 51.88882 -2.16557 89 ft 8 kts 236°
2026-05-06 12:13 51.88860 -2.16640 87 ft 8 kts 257°
2026-05-06 12:13 51.88857 -2.16701 86 ft 0 kts 270°
2026-05-06 12:13 51.88857 -2.16705 86 ft 0 kts 269°
2026-05-06 12:13 51.88857 -2.16709 86 ft 0 kts 269°
2026-05-06 12:14 51.88866 -2.16766 85 ft 5 kts 315°
2026-05-06 12:14 51.88914 -2.16754 84 ft 14 kts 34°
2026-05-06 12:14 51.89230 -2.16417 88 ft 84 kts 35°
2026-05-06 12:14 51.89702 -2.15783 224 ft 89 kts 40°
2026-05-06 12:15 51.90093 -2.15046 414 ft 84 kts 46°
2026-05-06 12:15 51.90464 -2.14286 559 ft 91 kts 50°
2026-05-06 12:15 51.90763 -2.13484 928 ft 82 kts 91°
2026-05-06 12:15 51.90313 -2.13054 890 ft 95 kts 200°
2026-05-06 12:16 51.89801 -2.13399 1177 ft 82 kts 200°
2026-05-06 12:16 51.89305 -2.13761 1372 ft 77 kts 192°
2026-05-06 12:16 51.88766 -2.13487 1505 ft 85 kts 144°
2026-05-06 12:16 51.88276 -2.12859 1542 ft 102 kts 149°
2026-05-06 12:17 51.87659 -2.12345 1739 ft 96 kts 156°
2026-05-06 12:17 51.87069 -2.11833 1888 ft 99 kts 150°
2026-05-06 12:17 51.86514 -2.11162 1919 ft 110 kts 135°
2026-05-06 12:17 51.85980 -2.10113 1846 ft 126 kts 129°
2026-05-06 12:18 51.85465 -2.08906 1899 ft 118 kts 127°
2026-05-06 12:18 51.85078 -2.07837 2023 ft 117 kts 120°
2026-05-06 12:18 51.84671 -2.06608 1979 ft 122 kts 122°
2026-05-06 12:18 51.84277 -2.05451 2082 ft 118 kts 122°
2026-05-06 12:19 51.83804 -2.04329 2020 ft 122 kts 135°
2026-05-06 12:19 51.83138 -2.03543 2037 ft 118 kts 152°
2026-05-06 12:19 51.82439 -2.02881 2065 ft 117 kts 147°
2026-05-06 12:19 51.81784 -2.02056 2070 ft 118 kts 142°
2026-05-06 12:20 51.81113 -2.01323 2065 ft 117 kts 151°
2026-05-06 12:20 51.80422 -2.00614 2071 ft 116 kts 153°
2026-05-06 12:20 51.79693 -2.00061 2067 ft 116 kts 160°
2026-05-06 12:20 51.78940 -1.99593 2086 ft 115 kts 162°
2026-05-06 12:21 51.78147 -1.99404 2051 ft 117 kts 180°
2026-05-06 12:21 51.77337 -1.99439 2069 ft 115 kts 181°
2026-05-06 12:21 51.76548 -1.99330 2110 ft 113 kts 171°
2026-05-06 12:21 51.75766 -1.99056 2096 ft 116 kts 171°
2026-05-06 12:22 51.74960 -1.98973 2085 ft 115 kts 181°
2026-05-06 12:22 51.74171 -1.98875 2114 ft 114 kts 173°
2026-05-06 12:22 51.73375 -1.98679 2090 ft 117 kts 169°
2026-05-06 12:22 51.72599 -1.98344 2116 ft 115 kts 163°
2026-05-06 12:23 51.71848 -1.97849 2098 ft 118 kts 153°
2026-05-06 12:23 51.71189 -1.97041 2094 ft 120 kts 135°
2026-05-06 12:23 51.70746 -1.95894 2092 ft 122 kts 117°
2026-05-06 12:23 51.70221 -1.95576 1351 ft 142 kts 238°
2026-05-06 12:24 51.69817 -1.96748 1821 ft 100 kts 226°
2026-05-06 12:24 51.69159 -1.97371 1675 ft 124 kts 195°
2026-05-06 12:24 51.68341 -1.97249 1778 ft 120 kts 148°
2026-05-06 12:24 51.68059 -1.95948 1593 ft 146 kts 73°
2026-05-06 12:25 51.68135 -1.94613 1679 ft 122 kts 139°
2026-05-06 12:25 51.67428 -1.93843 1850 ft 116 kts 150°
2026-05-06 12:25 51.66788 -1.93128 2065 ft 116 kts 144°
2026-05-06 12:25 51.66156 -1.92244 2186 ft 119 kts 140°
2026-05-06 12:26 51.65510 -1.91478 2385 ft 116 kts 155°
2026-05-06 12:26 51.64767 -1.90939 2532 ft 116 kts 158°
2026-05-06 12:26 51.64041 -1.90401 2738 ft 115 kts 155°
2026-05-06 12:26 51.63318 -1.89828 2864 ft 116 kts 156°
2026-05-06 12:27 51.62586 -1.89309 2983 ft 116 kts 161°
2026-05-06 12:27 51.61806 -1.88932 3106 ft 116 kts 165°
2026-05-06 12:27 51.61034 -1.88614 3237 ft 115 kts 170°
2026-05-06 12:27 51.60241 -1.88468 3338 ft 116 kts 176°
2026-05-06 12:28 51.59407 -1.88346 3155 ft 125 kts 168°
2026-05-06 12:28 51.58711 -1.87649 3062 ft 121 kts 128°
2026-05-06 12:28 51.58249 -1.86523 2901 ft 120 kts 127°
2026-05-06 12:28 51.57743 -1.85451 2727 ft 120 kts 135°
2026-05-06 12:29 51.57182 -1.84483 2589 ft 118 kts 136°
2026-05-06 12:29 51.56614 -1.83516 2422 ft 120 kts 137°
2026-05-06 12:29 51.56000 -1.82615 2254 ft 119 kts 147°
2026-05-06 12:29 51.55274 -1.81999 2114 ft 117 kts 161°
2026-05-06 12:30 51.54499 -1.81632 1972 ft 116 kts 167°
2026-05-06 12:30 51.53756 -1.81097 1789 ft 120 kts 146°
2026-05-06 12:30 51.53150 -1.80151 1645 ft 120 kts 137°
2026-05-06 12:30 51.52591 -1.79168 1532 ft 120 kts 130°
2026-05-06 12:31 51.52080 -1.78102 1380 ft 121 kts 133°
2026-05-06 12:31 51.51498 -1.77109 1299 ft 124 kts 139°
2026-05-06 12:31 51.50850 -1.76286 1513 ft 114 kts 148°
2026-05-06 12:31 51.50155 -1.75614 1589 ft 119 kts 153°
2026-05-06 12:32 51.49428 -1.75026 1742 ft 115 kts 157°
2026-05-06 12:32 51.48691 -1.74528 1845 ft 117 kts 161°
2026-05-06 12:32 51.47953 -1.73971 1964 ft 117 kts 148°
2026-05-06 12:32 51.47295 -1.73206 2024 ft 118 kts 144°
2026-05-06 12:33 51.46674 -1.72332 2038 ft 121 kts 136°
2026-05-06 12:33 51.46173 -1.71266 2176 ft 118 kts 126°
2026-05-06 12:33 51.45701 -1.70165 2235 ft 121 kts 139°
2026-05-06 12:33 51.45079 -1.69266 2351 ft 117 kts 140°
2026-05-06 12:34 51.44541 -1.68294 2447 ft 121 kts 125°
2026-05-06 12:34 51.44218 -1.67017 2530 ft 125 kts 108°
2026-05-06 12:34 51.44115 -1.65660 2677 ft 125 kts 89°
2026-05-06 12:34 51.43910 -1.64331 2312 ft 148 kts 136°
2026-05-06 12:35 51.43151 -1.63691 2666 ft 111 kts 189°
2026-05-06 12:35 51.42406 -1.64418 2159 ft 145 kts 180°
2026-05-06 12:35 51.41598 -1.63813 2549 ft 110 kts 142°
2026-05-06 12:35 51.41004 -1.63045 2635 ft 119 kts 147°
2026-05-06 12:36 51.40279 -1.62380 2734 ft 115 kts 153°
2026-05-06 12:36 51.39610 -1.61785 2812 ft 113 kts 152°
2026-05-06 12:36 51.38913 -1.61077 2689 ft 120 kts 147°
2026-05-06 12:36 51.38286 -1.60269 2707 ft 116 kts 140°
2026-05-06 12:37 51.37720 -1.59275 2602 ft 122 kts 129°
2026-05-06 12:37 51.37289 -1.58124 2619 ft 119 kts 120°
2026-05-06 12:37 51.36854 -1.56979 2537 ft 121 kts 130°
2026-05-06 12:37 51.36333 -1.55940 2542 ft 117 kts 132°
2026-05-06 12:38 51.35863 -1.54855 2471 ft 122 kts 123°
2026-05-06 12:38 51.35519 -1.53612 2453 ft 121 kts 115°
2026-05-06 12:38 51.35156 -1.52393 2372 ft 122 kts 129°
2026-05-06 12:38 51.34613 -1.51380 2356 ft 117 kts 136°
2026-05-06 12:39 51.34071 -1.50419 2290 ft 119 kts 133°
2026-05-06 12:39 51.33553 -1.49367 2196 ft 120 kts 128°
2026-05-06 12:39 51.33072 -1.48304 2111 ft 119 kts 130°
2026-05-06 12:39 51.32538 -1.47283 2002 ft 119 kts 135°
2026-05-06 12:40 51.31991 -1.46301 1902 ft 118 kts 134°
2026-05-06 12:40 51.31462 -1.45290 1794 ft 118 kts 134°
2026-05-06 12:40 51.30864 -1.44413 1689 ft 116 kts 145°
2026-05-06 12:40 51.30185 -1.43721 1579 ft 116 kts 154°
2026-05-06 12:41 51.29454 -1.43198 1505 ft 112 kts 161°
2026-05-06 12:41 51.28701 -1.42864 1382 ft 113 kts 170°
2026-05-06 12:41 51.27926 -1.42697 1213 ft 113 kts 175°
2026-05-06 12:41 51.27135 -1.42614 1029 ft 113 kts 171°
2026-05-06 12:42 51.26424 -1.42011 823 ft 115 kts 148°
2026-05-06 12:42 51.25800 -1.41550 985 ft 71 kts 172°
2026-05-06 12:42 51.25281 -1.41590 976 ft 83 kts 184°
2026-05-06 12:42 51.24787 -1.41291 1041 ft 87 kts 144°
2026-05-06 12:43 51.24351 -1.40786 1218 ft 75 kts 153°
2026-05-06 12:43 51.23867 -1.40312 1229 ft 80 kts 153°
2026-05-06 12:43 51.23342 -1.39953 1251 ft 84 kts 165°
2026-05-06 12:43 51.22807 -1.39752 1317 ft 79 kts 162°
2026-05-06 12:44 51.22331 -1.39201 1262 ft 85 kts 136°
2026-05-06 12:44 51.21967 -1.38463 1251 ft 86 kts 132°
2026-05-06 12:44 51.21571 -1.37782 1250 ft 83 kts 140°
2026-05-06 12:44 51.21122 -1.37180 1228 ft 83 kts 148°
2026-05-06 12:45 51.20625 -1.36729 1215 ft 82 kts 154°
2026-05-06 12:45 51.20107 -1.36342 1205 ft 82 kts 160°
2026-05-06 12:45 51.19669 -1.34878 1000 ft 82 kts 125°
2026-05-06 12:46 51.19244 -1.34231 934 ft 83 kts 150°
2026-05-06 12:46 51.18928 -1.33408 889 ft 85 kts 131°
2026-05-06 12:46 51.18491 -1.32833 851 ft 84 kts 158°
2026-05-06 12:46 51.17946 -1.32558 810 ft 82 kts 127°
2026-05-06 12:47 51.17939 -1.31564 758 ft 94 kts 74°
2026-05-06 12:47 51.18087 -1.30607 821 ft 92 kts 84°
2026-05-06 12:47 51.18380 -1.29715 813 ft 93 kts 44°
2026-05-06 12:47 51.18756 -1.29061 695 ft 75 kts 71°
2026-05-06 12:48 51.18800 -1.28288 548 ft 73 kts 97°
2026-05-06 12:48 51.18744 -1.27557 508 ft 60 kts 108°
2026-05-06 12:48 51.18685 -1.26883 522 ft 61 kts 102°
2026-05-06 12:48 51.18645 -1.26171 617 ft 67 kts 90°
2026-05-06 12:49 51.18648 -1.25404 709 ft 69 kts 96°
2026-05-06 12:49 51.18814 -1.24643 711 ft 76 kts 63°
2026-05-06 12:49 51.19093 -1.23947 645 ft 72 kts 59°
2026-05-06 12:49 51.19388 -1.23374 524 ft 58 kts 32°
2026-05-06 12:50 51.19658 -1.23131 514 ft 27 kts 356°
2026-05-06 12:50 51.19670 -1.23211 513 ft 12 kts 203°
2026-05-06 12:50 51.19568 -1.23307 518 ft 15 kts 210°
2026-05-06 12:50 51.19486 -1.23392 520 ft 14 kts 217°
2026-05-06 12:51 51.19409 -1.23487 521 ft 13 kts 213°
2026-05-06 12:51 51.19379 -1.23600 523 ft 11 kts 265°
2026-05-06 12:51 51.19356 -1.23728 524 ft 12 kts 255°
2026-05-06 12:51 51.19342 -1.23893 528 ft 13 kts 269°
2026-05-06 12:52 51.19345 -1.23992 529 ft 4 kts 162°
2026-05-06 12:52 51.19340 -1.23988 530 ft 0 kts 153°